QPF
0.03 0.03 0.04 0.06 0.05 0.03 0.03 0.07 0.09 0.09 0.10 0.09 0.10 0.10 0.10 0.10 0.09 0.07 0.08 0.07 0.05 0.05 0.06 0.08 0.10 0.14 0.18 0.19 0.19 0.17 0.15 0.12 0.08 0.05 0.04 0.03 0.01 0.00 0.00 0.00 0.00 0.00 0.00
0.03 0.03 0.03 0.03 0.03 0.02 0.03 0.06 0.10 0.09 0.08 0.07 0.08 0.09 0.10 0.10 0.10 0.09 0.08 0.08 0.07 0.05 0.05 0.07 0.09 0.11 0.17 0.20 0.19 0.17 0.17 0.16 0.11 0.07 0.05 0.04 0.03 0.02 0.01 0.00 0.00 0.00 0.00
0.02 0.02 0.02 0.02 0.03 0.03 0.03 0.04 0.08 0.11 0.08 0.07 0.08 0.09 0.12 0.14 0.12 0.11 0.10 0.09 0.08 0.07 0.05 0.06 0.08 0.10 0.13 0.18 0.20 0.18 0.15 0.15 0.13 0.08 0.05 0.04 0.03 0.01 0.01 0.00 0.00 0.00 0.00
0.01 0.02 0.03 0.03 0.03 0.03 0.03 0.03 0.05 0.11 0.11 0.07 0.07 0.09 0.10 0.12 0.12 0.10 0.09 0.10 0.11 0.10 0.08 0.08 0.07 0.08 0.09 0.14 0.19 0.20 0.17 0.15 0.13 0.10 0.06 0.04 0.02 0.01 0.00 0.00 0.00 0.00 0.00
0.02 0.02 0.02 0.04 0.04 0.04 0.03 0.03 0.04 0.09 0.14 0.10 0.06 0.08 0.09 0.08 0.10 0.11 0.10 0.09 0.12 0.13 0.11 0.10 0.10 0.09 0.09 0.11 0.16 0.19 0.18 0.16 0.14 0.10 0.06 0.04 0.02 0.01 0.00 0.01 0.00 0.00 0.00
0.03 0.02 0.03 0.04 0.05 0.03 0.03 0.04 0.04 0.07 0.12 0.14 0.09 0.07 0.09 0.08 0.09 0.11 0.12 0.10 0.12 0.14 0.14 0.12 0.11 0.11 0.10 0.11 0.15 0.18 0.18 0.15 0.13 0.11 0.08 0.05 0.03 0.01 0.01 0.01 0.01 0.01 0.01
0.04 0.03 0.03 0.04 0.05 0.04 0.03 0.04 0.04 0.08 0.10 0.13 0.13 0.10 0.10 0.10 0.09 0.09 0.10 0.10 0.12 0.15 0.15 0.13 0.11 0.10 0.10 0.10 0.12 0.17 0.18 0.16 0.14 0.11 0.08 0.06 0.04 0.02 0.02 0.02 0.02 0.02 0.01
0.03 0.03 0.02 0.04 0.06 0.06 0.04 0.07 0.07 0.09 0.12 0.14 0.15 0.13 0.12 0.12 0.11 0.10 0.10 0.09 0.10 0.12 0.13 0.13 0.13 0.12 0.12 0.11 0.11 0.14 0.15 0.15 0.14 0.11 0.08 0.07 0.05 0.04 0.03 0.03 0.03 0.02 0.01
0.06 0.05 0.03 0.03 0.05 0.07 0.07 0.08 0.09 0.10 0.11 0.13 0.15 0.17 0.18 0.16 0.13 0.11 0.11 0.10 0.08 0.09 0.12 0.13 0.14 0.14 0.14 0.15 0.13 0.13 0.13 0.13 0.12 0.11 0.09 0.07 0.06 0.05 0.05 0.04 0.03 0.02 0.01
0.09 0.10 0.07 0.06 0.05 0.05 0.05 0.05 0.07 0.08 0.09 0.10 0.14 0.19 0.23 0.21 0.18 0.15 0.12 0.11 0.09 0.09 0.11 0.13 0.14 0.15 0.15 0.16 0.15 0.14 0.13 0.11 0.11 0.12 0.12 0.09 0.07 0.06 0.05 0.05 0.03 0.01 0.01
0.06 0.09 0.08 0.08 0.06 0.05 0.05 0.06 0.06 0.08 0.09 0.11 0.13 0.18 0.20 0.19 0.18 0.17 0.16 0.14 0.12 0.11 0.12 0.15 0.16 0.17 0.18 0.16 0.15 0.15 0.13 0.11 0.11 0.11 0.12 0.11 0.09 0.07 0.06 0.05 0.03 0.01 0.01
0.04 0.04 0.04 0.05 0.05 0.05 0.05 0.06 0.07 0.09 0.12 0.14 0.17 0.20 0.18 0.18 0.17 0.15 0.16 0.16 0.15 0.16 0.18 0.19 0.20 0.20 0.20 0.19 0.17 0.15 0.14 0.12 0.11 0.11 0.11 0.10 0.09 0.09 0.07 0.05 0.03 0.02 0.01
0.03 0.03 0.04 0.04 0.04 0.06 0.07 0.07 0.10 0.12 0.13 0.15 0.15 0.16 0.16 0.16 0.16 0.14 0.11 0.12 0.13 0.15 0.17 0.18 0.18 0.19 0.19 0.19 0.17 0.16 0.16 0.14 0.12 0.12 0.11 0.09 0.08 0.08 0.07 0.05 0.04 0.03 0.02
0.02 0.03 0.04 0.05 0.05 0.07 0.09 0.08 0.10 0.14 0.13 0.12 0.12 0.12 0.11 0.11 0.13 0.12 0.11 0.12 0.14 0.16 0.15 0.16 0.17 0.17 0.17 0.17 0.16 0.16 0.15 0.15 0.14 0.13 0.12 0.10 0.08 0.07 0.06 0.05 0.05 0.04 0.02
0.01 0.03 0.04 0.05 0.07 0.10 0.12 0.10 0.10 0.12 0.11 0.09 0.09 0.10 0.10 0.10 0.11 0.09 0.09 0.12 0.13 0.15 0.16 0.16 0.17 0.18 0.19 0.18 0.18 0.17 0.18 0.17 0.15 0.14 0.14 0.12 0.09 0.07 0.06 0.05 0.05 0.04 0.03
0.01 0.03 0.04 0.05 0.06 0.09 0.12 0.12 0.10 0.12 0.10 0.10 0.09 0.09 0.10 0.12 0.13 0.13 0.15 0.14 0.13 0.13 0.14 0.16 0.18 0.19 0.20 0.20 0.19 0.17 0.17 0.18 0.16 0.15 0.13 0.12 0.10 0.08 0.07 0.06 0.05 0.04 0.03
0.02 0.03 0.04 0.05 0.05 0.06 0.09 0.11 0.11 0.11 0.10 0.09 0.11 0.11 0.09 0.11 0.12 0.14 0.17 0.15 0.14 0.13 0.14 0.15 0.16 0.18 0.19 0.21 0.20 0.18 0.16 0.17 0.16 0.15 0.13 0.13 0.11 0.10 0.08 0.07 0.05 0.04 0.03
0.02 0.02 0.04 0.05 0.04 0.05 0.07 0.08 0.09 0.10 0.08 0.09 0.10 0.11 0.09 0.09 0.08 0.11 0.14 0.15 0.15 0.13 0.12 0.14 0.16 0.17 0.17 0.18 0.20 0.21 0.18 0.15 0.14 0.13 0.12 0.12 0.12 0.11 0.08 0.06 0.05 0.04 0.03
0.01 0.02 0.03 0.03 0.03 0.04 0.05 0.07 0.08 0.08 0.08 0.09 0.09 0.09 0.08 0.07 0.06 0.08 0.12 0.14 0.16 0.12 0.10 0.12 0.14 0.15 0.16 0.16 0.18 0.23 0.22 0.18 0.15 0.13 0.12 0.12 0.11 0.11 0.09 0.08 0.06 0.05 0.03
0.00 0.01 0.01 0.01 0.02 0.03 0.04 0.07 0.09 0.05 0.07 0.08 0.08 0.08 0.07 0.06 0.05 0.05 0.08 0.10 0.12 0.13 0.12 0.12 0.13 0.12 0.14 0.15 0.15 0.18 0.21 0.21 0.18 0.16 0.14 0.13 0.11 0.10 0.09 0.07 0.06 0.05 0.03
0.00 0.00 0.00 0.01 0.02 0.03 0.04 0.06 0.09 0.06 0.06 0.07 0.07 0.06 0.05 0.05 0.05 0.06 0.07 0.08 0.12 0.15 0.15 0.14 0.12 0.10 0.11 0.15 0.13 0.14 0.15 0.17 0.17 0.18 0.18 0.13 0.11 0.09 0.07 0.07 0.07 0.06 0.05
0.00 0.01 0.01 0.01 0.02 0.03 0.04 0.06 0.08 0.07 0.07 0.06 0.05 0.05 0.05 0.05 0.05 0.06 0.07 0.10 0.13 0.16 0.14 0.13 0.12 0.09 0.09 0.12 0.14 0.13 0.12 0.13 0.12 0.12 0.13 0.13 0.13 0.10 0.08 0.07 0.07 0.07 0.07
0.01 0.01 0.01 0.01 0.03 0.04 0.04 0.06 0.07 0.05 0.05 0.06 0.05 0.04 0.05 0.05 0.05 0.07 0.10 0.11 0.12 0.13 0.12 0.10 0.10 0.10 0.09 0.09 0.12 0.12 0.11 0.10 0.09 0.09 0.11 0.12 0.11 0.10 0.10 0.10 0.09 0.08 0.06
0.01 0.02 0.02 0.03 0.05 0.05 0.04 0.04 0.04 0.03 0.03 0.04 0.05 0.05 0.06 0.07 0.08 0.09 0.10 0.11 0.11 0.10 0.09 0.08 0.08 0.09 0.09 0.09 0.10 0.12 0.13 0.11 0.10 0.10 0.12 0.13 0.13 0.10 0.09 0.10 0.11 0.09 0.07
0.02 0.02 0.03 0.04 0.06 0.06 0.04 0.03 0.03 0.03 0.03 0.03 0.05 0.07 0.08 0.08 0.09 0.10 0.10 0.10 0.10 0.08 0.07 0.06 0.05 0.07 0.08 0.10 0.11 0.12 0.12 0.10 0.09 0.11 0.12 0.14 0.14 0.13 0.09 0.07 0.07 0.06 0.07
0.02 0.02 0.02 0.04 0.06 0.06 0.05 0.04 0.03 0.03 0.04 0.06 0.06 0.07 0.07 0.07 0.08 0.08 0.08 0.07 0.07 0.07 0.05 0.04 0.05 0.06 0.08 0.09 0.11 0.12 0.12 0.11 0.12 0.12 0.11 0.11 0.11 0.11 0.09 0.07 0.06 0.06 0.05
MSLP
1013.06 1013.03 1012.97 1012.88 1012.75 1012.62 1012.48 1012.35 1012.22 1012.08 1011.90 1011.66 1011.33 1010.90 1010.36 1009.71 1008.97 1008.17 1007.31 1006.44 1005.55 1004.69 1003.86 1003.11 1002.45 1001.92 1001.55 1001.35 1001.34 1001.53 1001.91 1002.46 1003.14 1003.93 1004.78 1005.67 1006.56 1007.42 1008.24 1009.01 1009.70 1010.31 1010.83
1013.00 1013.03 1013.01 1012.93 1012.79 1012.61 1012.42 1012.23 1012.04 1011.86 1011.67 1011.44 1011.14 1010.75 1010.25 1009.64 1008.92 1008.11 1007.22 1006.27 1005.31 1004.34 1003.41 1002.55 1001.78 1001.15 1000.69 1000.43 1000.37 1000.54 1000.91 1001.48 1002.20 1003.04 1003.97 1004.93 1005.91 1006.87 1007.78 1008.62 1009.39 1010.07 1010.64
1012.86 1012.94 1012.96 1012.90 1012.75 1012.54 1012.30 1012.05 1011.82 1011.62 1011.42 1011.21 1010.96 1010.63 1010.19 1009.62 1008.92 1008.10 1007.17 1006.15 1005.08 1003.99 1002.93 1001.92 1001.03 1000.29 999.74 999.40 999.32 999.47 999.87 1000.48 1001.27 1002.19 1003.19 1004.24 1005.30 1006.33 1007.31 1008.22 1009.04 1009.77 1010.39
1012.65 1012.79 1012.85 1012.80 1012.65 1012.41 1012.12 1011.83 1011.56 1011.34 1011.15 1010.97 1010.77 1010.50 1010.13 1009.61 1008.94 1008.11 1007.14 1006.04 1004.86 1003.64 1002.42 1001.27 1000.24 999.38 998.74 998.36 998.25 998.42 998.86 999.54 1000.41 1001.42 1002.51 1003.63 1004.75 1005.84 1006.85 1007.79 1008.64 1009.39 1010.04
1012.41 1012.59 1012.69 1012.66 1012.50 1012.23 1011.91 1011.57 1011.27 1011.03 1010.85 1010.71 1010.56 1010.36 1010.05 1009.59 1008.94 1008.11 1007.10 1005.93 1004.64 1003.29 1001.93 1000.64 999.48 998.52 997.80 997.38 997.27 997.47 997.97 998.73 999.68 1000.77 1001.93 1003.11 1004.26 1005.36 1006.38 1007.32 1008.16 1008.91 1009.56
1012.17 1012.39 1012.52 1012.50 1012.33 1012.04 1011.68 1011.30 1010.96 1010.71 1010.53 1010.41 1010.31 1010.16 1009.91 1009.50 1008.88 1008.06 1007.02 1005.79 1004.42 1002.96 1001.49 1000.08 998.82 997.77 997.01 996.56 996.46 996.70 997.26 998.09 999.11 1000.25 1001.46 1002.66 1003.81 1004.89 1005.88 1006.78 1007.59 1008.32 1008.98
1011.97 1012.23 1012.38 1012.37 1012.19 1011.87 1011.47 1011.04 1010.67 1010.38 1010.19 1010.08 1010.00 1009.90 1009.69 1009.32 1008.74 1007.93 1006.89 1005.63 1004.21 1002.69 1001.14 999.66 998.33 997.24 996.43 995.98 995.89 996.16 996.76 997.63 998.69 999.86 1001.08 1002.26 1003.38 1004.41 1005.34 1006.18 1006.94 1007.65 1008.30
1011.82 1012.11 1012.29 1012.29 1012.10 1011.75 1011.31 1010.84 1010.42 1010.09 1009.87 1009.75 1009.67 1009.58 1009.40 1009.07 1008.52 1007.73 1006.71 1005.46 1004.03 1002.50 1000.93 999.42 998.06 996.94 996.13 995.67 995.58 995.86 996.47 997.35 998.41 999.57 1000.75 1001.89 1002.95 1003.91 1004.77 1005.54 1006.25 1006.93 1007.58
1011.72 1012.06 1012.26 1012.27 1012.08 1011.71 1011.23 1010.71 1010.24 1009.86 1009.60 1009.44 1009.33 1009.23 1009.06 1008.74 1008.23 1007.48 1006.49 1005.28 1003.90 1002.40 1000.85 999.36 998.02 996.90 996.09 995.62 995.52 995.78 996.36 997.21 998.23 999.34 1000.46 1001.54 1002.52 1003.40 1004.19 1004.90 1005.57 1006.22 1006.88
1011.70 1012.08 1012.31 1012.34 1012.14 1011.75 1011.24 1010.68 1010.15 1009.72 1009.39 1009.17 1009.03 1008.89 1008.70 1008.38 1007.89 1007.19 1006.26 1005.12 1003.81 1002.39 1000.92 999.48 998.18 997.09 996.27 995.79 995.65 995.86 996.38 997.16 998.10 999.13 1000.18 1001.18 1002.09 1002.91 1003.63 1004.30 1004.94 1005.58 1006.25
1011.72 1012.16 1012.42 1012.46 1012.27 1011.86 1011.33 1010.73 1010.16 1009.66 1009.27 1008.98 1008.76 1008.57 1008.34 1008.02 1007.54 1006.88 1006.02 1004.98 1003.78 1002.46 1001.09 999.74 998.50 997.43 996.61 996.09 995.89 996.01 996.44 997.12 997.96 998.91 999.88 1000.81 1001.67 1002.44 1003.14 1003.78 1004.41 1005.06 1005.74
1011.81 1012.29 1012.57 1012.62 1012.43 1012.02 1011.46 1010.84 1010.23 1009.67 1009.21 1008.85 1008.56 1008.29 1008.01 1007.66 1007.18 1006.57 1005.79 1004.84 1003.76 1002.57 1001.31 1000.06 998.88 997.84 997.00 996.42 996.14 996.15 996.46 997.02 997.76 998.61 999.52 1000.41 1001.25 1002.02 1002.72 1003.37 1004.00 1004.66 1005.35
1011.95 1012.45 1012.74 1012.78 1012.58 1012.16 1011.60 1010.96 1010.31 1009.71 1009.19 1008.75 1008.38 1008.04 1007.69 1007.30 1006.83 1006.24 1005.53 1004.70 1003.73 1002.67 1001.53 1000.37 999.25 998.22 997.35 996.70 996.31 996.20 996.37 996.80 997.44 998.22 999.08 999.96 1000.82 1001.61 1002.35 1003.04 1003.70 1004.37 1005.07
1012.13 1012.62 1012.88 1012.90 1012.67 1012.25 1011.68 1011.03 1010.36 1009.73 1009.16 1008.65 1008.20 1007.78 1007.37 1006.93 1006.45 1005.90 1005.26 1004.52 1003.67 1002.72 1001.70 1000.63 999.55 998.52 997.61 996.87 996.35 996.11 996.14 996.45 996.99 997.71 998.55 999.45 1000.35 1001.21 1002.02 1002.76 1003.47 1004.16 1004.86
1012.34 1012.76 1012.97 1012.93 1012.67 1012.23 1011.65 1011.00 1010.33 1009.68 1009.07 1008.50 1007.98 1007.49 1007.02 1006.54 1006.05 1005.52 1004.94 1004.29 1003.55 1002.72 1001.79 1000.79 999.75 998.71 997.74 996.90 996.26 995.87 995.76 995.95 996.41 997.09 997.93 998.87 999.84 1000.79 1001.68 1002.51 1003.27 1003.99 1004.69
1012.53 1012.86 1012.97 1012.86 1012.55 1012.09 1011.51 1010.87 1010.20 1009.55 1008.91 1008.30 1007.71 1007.16 1006.63 1006.12 1005.61 1005.11 1004.59 1004.02 1003.38 1002.65 1001.81 1000.87 999.85 998.80 997.76 996.82 996.05 995.52 995.28 995.36 995.73 996.38 997.23 998.22 999.27 1000.33 1001.33 1002.25 1003.08 1003.84 1004.54
1012.69 1012.89 1012.88 1012.68 1012.32 1011.83 1011.26 1010.63 1009.98 1009.33 1008.67 1008.03 1007.40 1006.79 1006.22 1005.67 1005.17 1004.68 1004.21 1003.72 1003.18 1002.54 1001.79 1000.90 999.90 998.82 997.73 996.69 995.80 995.14 994.77 994.74 995.04 995.65 996.51 997.55 998.69 999.85 1000.96 1001.98 1002.89 1003.71 1004.43
1012.78 1012.82 1012.69 1012.41 1012.00 1011.50 1010.94 1010.35 1009.72 1009.08 1008.41 1007.75 1007.08 1006.43 1005.81 1005.24 1004.73 1004.28 1003.86 1003.44 1002.98 1002.43 1001.75 1000.92 999.94 998.85 997.70 996.59 995.59 994.81 994.32 994.19 994.42 994.99 995.85 996.93 998.14 999.40 1000.61 1001.73 1002.74 1003.62 1004.39
1012.77 1012.68 1012.44 1012.09 1011.66 1011.17 1010.64 1010.07 1009.48 1008.85 1008.19 1007.50 1006.80 1006.11 1005.46 1004.87 1004.36 1003.93 1003.56 1003.21 1002.82 1002.36 1001.75 1000.97 1000.02 998.93 997.75 996.57 995.49 994.61 994.03 993.80 993.96 994.48 995.34 996.44 997.70 999.03 1000.34 1001.56 1002.66 1003.63 1004.47
1012.68 1012.48 1012.17 1011.79 1011.36 1010.90 1010.41 1009.89 1009.33 1008.72 1008.05 1007.34 1006.61 1005.89 1005.21 1004.60 1004.09 1003.68 1003.35 1003.05 1002.74 1002.34 1001.80 1001.08 1000.16 999.08 997.89 996.68 995.54 994.59 993.93 993.63 993.72 994.20 995.02 996.13 997.42 998.80 1000.19 1001.50 1002.70 1003.76 1004.69
1012.52 1012.25 1011.92 1011.55 1011.15 1010.73 1010.30 1009.83 1009.30 1008.70 1008.03 1007.30 1006.54 1005.79 1005.08 1004.46 1003.94 1003.55 1003.24 1002.99 1002.72 1002.38 1001.90 1001.23 1000.36 999.30 998.13 996.91 995.75 994.76 994.05 993.69 993.73 994.16 994.95 996.04 997.34 998.76 1000.20 1001.59 1002.88 1004.03 1005.06
1012.30 1012.03 1011.72 1011.38 1011.04 1010.69 1010.31 1009.89 1009.38 1008.80 1008.12 1007.37 1006.58 1005.80 1005.07 1004.43 1003.91 1003.52 1003.22 1002.99 1002.76 1002.45 1002.01 1001.38 1000.55 999.54 998.40 997.20 996.05 995.07 994.34 993.95 993.95 994.35 995.10 996.17 997.46 998.89 1000.37 1001.82 1003.18 1004.44 1005.56
1012.06 1011.82 1011.56 1011.29 1011.02 1010.73 1010.40 1010.01 1009.52 1008.94 1008.25 1007.49 1006.69 1005.88 1005.14 1004.48 1003.96 1003.56 1003.27 1003.04 1002.81 1002.51 1002.09 1001.49 1000.70 999.73 998.64 997.49 996.39 995.43 994.73 994.35 994.34 994.71 995.44 996.48 997.75 999.18 1000.67 1002.16 1003.59 1004.92 1006.13
1011.80 1011.62 1011.42 1011.22 1011.01 1010.77 1010.48 1010.10 1009.63 1009.04 1008.35 1007.58 1006.77 1005.97 1005.23 1004.58 1004.05 1003.64 1003.33 1003.08 1002.83 1002.52 1002.09 1001.50 1000.73 999.80 998.77 997.69 996.66 995.77 995.12 994.79 994.80 995.17 995.89 996.91 998.16 999.57 1001.07 1002.57 1004.04 1005.43 1006.72
1011.52 1011.39 1011.25 1011.09 1010.92 1010.70 1010.42 1010.05 1009.58 1008.99 1008.31 1007.56 1006.77 1006.00 1005.28 1004.64 1004.12 1003.70 1003.37 1003.08 1002.79 1002.43 1001.97 1001.36 1000.60 999.71 998.73 997.74 996.80 996.01 995.45 995.19 995.25 995.65 996.37 997.38 998.61 1000.00 1001.49 1003.00 1004.49 1005.91 1007.25
1011.20 1011.10 1010.97 1010.83 1010.66 1010.43 1010.14 1009.76 1009.28 1008.71 1008.06 1007.35 1006.62 1005.90 1005.24 1004.65 1004.15 1003.72 1003.36 1003.02 1002.66 1002.24 1001.72 1001.07 1000.31 999.44 998.52 997.61 996.78 996.11 995.66 995.49 995.63 996.08 996.83 997.84 999.07 1000.44 1001.91 1003.41 1004.90 1006.34 1007.70
Thickness
5559 5562 5564 5565 5567 5568 5570 5574 5577 5581 5584 5589 5592 5595 5599 5602 5605 5608 5612 5615 5617 5620 5624 5627 5631 5634 5637 5640 5641 5642 5641 5641 5640 5638 5635 5634 5635 5637 5637 5636 5635 5634 5632
5551 5554 5555 5555 5556 5558 5560 5563 5566 5569 5572 5577 5581 5583 5587 5590 5593 5597 5600 5602 5605 5608 5612 5616 5621 5624 5627 5630 5633 5634 5634 5634 5634 5634 5630 5627 5626 5628 5631 5630 5629 5628 5626
5541 5545 5547 5548 5548 5548 5551 5555 5557 5561 5563 5566 5569 5571 5573 5576 5579 5583 5588 5592 5595 5598 5602 5606 5611 5615 5618 5622 5625 5627 5628 5628 5626 5630 5630 5625 5626 5623 5623 5623 5624 5622 5620
5534 5537 5539 5540 5541 5542 5543 5545 5548 5552 5555 5557 5559 5560 5562 5565 5570 5573 5578 5582 5585 5589 5593 5597 5601 5605 5610 5615 5618 5620 5622 5623 5621 5621 5624 5626 5627 5623 5618 5616 5616 5615 5614
5526 5529 5531 5534 5535 5535 5536 5539 5542 5545 5547 5548 5550 5551 5553 5556 5559 5562 5567 5572 5576 5580 5585 5588 5591 5596 5602 5607 5610 5613 5615 5617 5619 5619 5618 5617 5618 5620 5618 5615 5611 5608 5608
5521 5523 5526 5528 5529 5530 5531 5533 5534 5537 5539 5540 5542 5544 5546 5548 5550 5554 5558 5563 5567 5572 5576 5580 5583 5588 5594 5599 5603 5606 5609 5612 5613 5615 5616 5615 5615 5614 5614 5612 5608 5605 5602
5516 5517 5520 5522 5523 5524 5525 5526 5528 5530 5532 5533 5536 5538 5540 5542 5544 5548 5552 5556 5560 5564 5569 5573 5576 5580 5586 5592 5596 5599 5602 5605 5608 5609 5610 5611 5614 5612 5611 5608 5602 5598 5594
5511 5512 5513 5514 5515 5517 5519 5520 5522 5524 5526 5528 5529 5532 5534 5537 5539 5542 5546 5549 5554 5560 5564 5567 5570 5575 5579 5585 5589 5593 5596 5599 5602 5603 5605 5606 5607 5607 5607 5604 5599 5593 5588
5507 5506 5507 5508 5510 5511 5513 5514 5515 5518 5520 5521 5523 5526 5529 5531 5534 5537 5540 5544 5549 5553 5557 5561 5565 5569 5573 5578 5582 5586 5589 5592 5595 5598 5599 5601 5601 5601 5601 5601 5599 5594 5589
5502 5501 5502 5502 5504 5505 5506 5507 5508 5510 5512 5514 5517 5522 5524 5526 5530 5532 5534 5538 5543 5547 5550 5555 5559 5563 5567 5572 5576 5580 5583 5586 5590 5592 5593 5594 5595 5594 5595 5595 5593 5592 5589
5495 5495 5496 5496 5497 5498 5499 5499 5501 5503 5506 5510 5513 5516 5519 5522 5525 5528 5530 5533 5536 5540 5544 5549 5553 5559 5563 5568 5572 5576 5579 5582 5585 5587 5589 5590 5589 5588 5589 5588 5587 5585 5583
5490 5490 5490 5489 5490 5491 5491 5492 5494 5497 5502 5505 5509 5511 5514 5518 5520 5522 5525 5527 5530 5534 5539 5543 5548 5554 5559 5563 5567 5571 5575 5578 5581 5584 5584 5585 5586 5584 5583 5582 5581 5580 5579
5487 5486 5485 5483 5483 5484 5485 5487 5489 5493 5496 5499 5502 5505 5508 5511 5514 5516 5518 5521 5525 5529 5533 5537 5543 5549 5555 5559 5564 5569 5573 5576 5579 5580 5581 5582 5582 5580 5579 5578 5576 5574 5572
5480 5479 5478 5477 5477 5479 5481 5482 5485 5488 5490 5493 5495 5498 5502 5505 5508 5510 5513 5516 5520 5524 5529 5533 5539 5545 5552 5556 5559 5564 5569 5571 5574 5576 5577 5578 5580 5579 5576 5575 5572 5568 5565
5475 5473 5471 5471 5472 5474 5477 5480 5482 5483 5485 5487 5489 5492 5495 5498 5501 5504 5507 5511 5516 5520 5524 5528 5533 5539 5547 5552 5556 5561 5564 5567 5569 5571 5572 5574 5576 5576 5574 5572 5568 5564 5560
5470 5469 5467 5466 5467 5468 5471 5474 5477 5479 5481 5482 5483 5486 5488 5491 5495 5499 5502 5506 5510 5514 5517 5522 5529 5535 5543 5548 5552 5557 5560 5562 5564 5566 5567 5568 5570 5570 5569 5568 5566 5563 5557
5464 5461 5460 5459 5460 5462 5464 5466 5469 5472 5474 5476 5477 5479 5481 5484 5488 5492 5496 5500 5503 5507 5511 5516 5523 5530 5538 5543 5547 5551 5555 5558 5559 5561 5562 5563 5564 5564 5562 5561 5558 5556 5554
5457 5455 5453 5453 5454 5456 5457 5459 5462 5465 5467 5469 5471 5472 5473 5477 5481 5485 5489 5492 5496 5500 5504 5510 5517 5524 5531 5536 5541 5544 5548 5552 5554 5556 5558 5559 5558 5557 5555 5552 5550 5547 5546
5451 5449 5447 5447 5448 5449 5450 5452 5455 5457 5460 5462 5463 5465 5467 5470 5474 5477 5481 5485 5489 5494 5498 5504 5511 5517 5523 5529 5534 5538 5541 5544 5547 5549 5550 5551 5551 5551 5549 5546 5543 5540 5538
5445 5443 5442 5441 5442 5444 5444 5446 5448 5450 5452 5454 5456 5458 5460 5462 5466 5469 5473 5478 5482 5487 5493 5499 5505 5511 5516 5521 5527 5532 5535 5537 5539 5540 5542 5544 5545 5545 5543 5540 5538 5535 5532
5441 5439 5437 5435 5436 5437 5438 5439 5442 5444 5446 5448 5449 5451 5453 5456 5459 5463 5467 5471 5476 5480 5485 5491 5496 5502 5508 5513 5519 5525 5527 5529 5531 5533 5534 5537 5538 5537 5536 5535 5533 5532 5526
5434 5433 5431 5430 5430 5430 5430 5432 5434 5437 5439 5441 5443 5445 5447 5450 5454 5456 5460 5465 5469 5474 5479 5484 5489 5493 5498 5504 5510 5515 5520 5522 5524 5525 5527 5529 5529 5529 5528 5527 5526 5522 5517
5427 5426 5424 5425 5425 5424 5424 5425 5428 5431 5433 5435 5436 5438 5441 5444 5446 5449 5454 5459 5463 5467 5472 5476 5480 5484 5489 5494 5500 5505 5510 5513 5515 5517 5519 5519 5519 5519 5519 5518 5516 5513 5509
5420 5418 5417 5417 5418 5418 5418 5419 5422 5424 5426 5428 5431 5433 5436 5438 5441 5444 5448 5452 5455 5459 5463 5467 5471 5475 5480 5485 5489 5493 5498 5502 5504 5506 5507 5508 5509 5510 5510 5508 5506 5504 5503
5412 5410 5409 5409 5411 5411 5412 5414 5415 5417 5419 5422 5424 5427 5430 5432 5436 5439 5441 5445 5448 5451 5455 5459 5463 5467 5472 5477 5481 5484 5489 5492 5494 5496 5496 5496 5497 5498 5499 5498 5497 5495 5493
5404 5403 5402 5402 5403 5404 5405 5407 5409 5410 5412 5415 5418 5420 5423 5426 5429 5432 5435 5439 5442 5445 5449 5452 5456 5460 5465 5469 5473 5477 5481 5484 5487 5488 5488 5488 5489 5491 5491 5491 5489 5487 5486